Wind_Speed
15 15 17 16 12 12 18 24 16 14 9 13 11 14 14 17 14 7 5 12 13 8 10 10 11 11 9 9 10 9 9 10 12 14 15 15 15 14 12 9 7 5 4 4 3 3 3 4 5
15 17 17 18 15 19 19 10 11 14 16 19 18 11 16 20 19 13 8 8 9 10 11 10 11 11 10 10 10 10 11 11 11 13 15 15 14 14 13 11 8 6 5 5 5 4 3 3 5
14 18 20 14 21 28 17 12 13 19 19 21 18 20 17 24 24 19 11 9 10 10 10 10 11 11 12 11 12 12 12 12 13 12 13 14 14 13 12 11 10 9 7 6 5 4 3 3 4
15 17 20 21 22 17 25 15 7 14 24 24 25 19 22 25 24 22 21 15 10 13 12 11 11 12 12 12 13 12 12 12 13 14 14 13 13 12 12 12 11 10 8 6 4 4 4 4 5
15 19 23 23 26 20 10 11 18 18 20 22 19 22 19 24 27 23 18 25 23 16 14 13 11 13 13 13 14 14 14 13 13 13 14 14 14 13 12 12 11 9 9 8 6 4 4 4 5
19 21 15 29 24 14 17 13 19 21 22 23 22 24 26 26 25 23 23 24 24 23 19 16 14 14 15 15 15 15 15 16 16 15 14 14 14 14 14 13 12 10 9 9 7 6 5 5 6
20 23 26 21 15 17 9 18 23 23 24 23 20 17 26 29 25 22 18 21 28 27 25 20 17 16 16 17 17 17 16 16 17 16 16 15 15 15 14 14 13 12 11 10 9 9 8 7 7
21 22 25 24 23 18 11 21 29 25 23 24 22 17 25 24 25 20 20 21 26 28 29 26 22 20 19 19 20 20 18 17 18 18 17 16 16 16 16 16 15 13 11 11 11 11 11 10 9
24 26 29 28 16 18 16 21 24 26 20 24 24 26 17 21 23 17 17 20 24 26 28 29 27 25 22 21 21 21 20 18 18 18 18 19 17 16 16 17 17 17 15 14 13 12 12 11 10
28 32 31 23 18 15 19 24 24 23 22 26 26 28 25 26 22 16 15 16 21 23 24 24 30 29 28 26 25 22 22 21 19 19 18 18 19 19 18 17 17 17 18 18 16 15 13 12 11
30 34 29 16 22 19 23 23 26 24 22 23 22 22 23 24 23 20 18 18 19 20 21 20 24 29 31 30 28 25 24 23 22 21 19 19 19 20 21 21 20 18 17 17 17 17 15 14 12
31 29 27 28 22 27 27 27 31 31 23 19 22 24 24 24 20 19 18 18 20 22 20 20 20 25 31 32 32 29 25 24 25 22 22 21 20 20 21 22 21 21 20 20 18 17 18 17 15
27 26 24 26 30 31 33 34 32 33 27 23 22 23 23 23 21 18 17 19 19 20 21 20 21 23 25 25 31 31 27 25 26 25 25 23 20 20 21 22 22 21 22 21 20 19 18 19 17
12 18 23 25 26 29 33 35 35 37 29 27 27 26 24 23 22 19 19 19 18 17 21 21 22 25 27 28 27 28 25 26 27 27 27 24 21 20 23 23 23 23 24 23 22 21 21 21 18
28 30 26 26 30 35 34 38 41 26 27 28 27 26 26 26 25 21 19 19 19 19 18 21 20 24 27 27 27 30 24 27 25 27 28 26 24 22 22 23 23 24 24 24 24 23 23 22 19
26 32 38 38 32 29 28 43 33 20 25 29 27 27 26 25 25 23 22 21 20 20 19 20 22 24 26 30 35 34 26 30 27 25 28 28 26 24 23 23 24 24 23 24 24 24 23 23 21
28 24 26 30 26 28 26 34 18 21 28 24 19 21 26 27 27 25 23 23 20 20 19 21 22 24 28 29 32 33 33 32 33 28 26 28 26 26 24 23 25 25 24 24 25 24 24 23 22
36 30 37 36 26 18 28 32 21 18 21 18 19 21 22 23 25 25 24 23 22 21 21 20 21 24 28 30 33 34 31 30 31 31 28 24 27 27 26 25 25 25 24 24 25 25 26 25 23
32 22 32 27 13 14 31 33 26 21 23 22 22 21 21 24 22 22 24 23 23 22 24 21 19 21 28 31 34 36 37 35 30 32 28 29 29 29 28 27 28 27 26 25 25 26 28 25 24
41 41 42 27 21 21 16 25 26 26 27 28 27 26 25 25 24 22 23 26 26 25 25 24 20 18 23 28 30 32 34 34 35 33 34 26 28 29 30 30 30 30 28 27 27 27 27 26 26
41 43 37 34 31 30 24 30 28 29 30 28 29 28 28 27 28 27 27 30 28 29 28 25 21 21 20 26 29 30 31 35 30 34 34 34 39 32 30 32 31 31 31 29 28 26 27 26 27
39 37 32 29 21 21 13 10 23 21 19 16 17 28 38 37 34 32 30 31 34 31 28 30 23 23 23 26 28 28 28 32 37 40 33 38 35 32 32 32 33 33 33 32 30 28 29 27 27
40 26 27 23 26 25 32 15 13 24 28 24 20 28 36 40 39 37 38 37 38 36 34 33 27 25 26 27 29 28 27 24 25 26 29 34 38 40 41 39 32 36 36 35 32 30 30 28 29
23 28 22 24 21 8 40 24 6 17 18 19 25 28 28 30 32 35 38 39 41 41 37 33 28 25 28 28 29 29 26 27 28 28 30 29 33 41 42 44 44 38 39 37 34 31 31 29 29
36 23 7 7 8 11 12 19 24 15 22 29 28 35 32 29 30 28 28 29 31 35 34 35 30 27 28 28 27 26 25 25 29 31 32 34 35 35 48 49 48 43 41 40 37 35 33 32 30
26 38 6 9 6 9 14 10 8 30 25 27 29 32 34 33 29 28 28 27 29 30 32 32 32 28 29 28 26 22 21 23 28 28 33 38 38 38 36 46 48 43 43 43 38 35 34 32 31
33 25 43 2 3 6 15 13 17 26 27 24 24 26 29 29 25 25 26 26 28 29 30 32 31 25 29 30 24 23 24 26 32 30 35 32 30 36 33 40 48 45 45 42 39 36 34 32 33
28 25 19 20 6 5 7 14 9 19 24 24 25 25 26 26 23 22 19 22 29 32 32 28 27 29 25 22 24 23 24 28 32 32 30 28 37 35 39 45 40 42 40 38 37 36 34 34 32
5 4 9 24 19 6 7 7 8 13 11 21 22 24 25 25 21 19 19 20 23 23 24 25 28 28 25 29 23 26 25 20 25 33 28 19 33 34 35 45 39 37 42 38 37 35 34 34 34
13 23 25 8 5 29 8 6 8 14 15 12 22 20 19 20 19 20 20 19 20 23 24 22 26 32 29 19 26 21 20 14 18 25 30 24 27 26 28 45 45 40 45 38 38 36 35 36 35
Wind_Direction
237 233 234 232 223 225 233 237 245 214 258 244 222 215 216 212 199 219 233 218 206 212 202 193 190 188 187 195 193 193 185 184 179 169 167 171 171 176 177 178 177 162 148 134 118 111 104 124 138
228 225 226 222 221 221 234 244 235 223 247 247 237 212 216 218 212 223 232 215 189 187 186 192 192 194 189 195 194 193 189 186 188 178 171 171 173 175 174 173 168 164 164 151 139 137 125 122 138
223 217 216 214 226 229 239 229 250 237 230 241 233 228 220 232 223 220 226 221 180 191 187 192 196 196 193 193 196 196 193 189 188 189 186 178 177 178 176 173 170 167 167 155 151 140 144 142 147
219 216 211 218 225 242 240 227 240 208 223 237 250 238 228 231 232 221 226 227 200 205 201 202 199 201 202 197 197 199 199 196 194 192 192 191 185 180 182 178 176 170 164 156 161 153 160 157 158
223 219 213 228 233 236 200 198 238 244 233 234 249 239 231 230 234 232 231 238 233 220 215 210 208 205 209 202 203 200 198 200 201 198 195 193 191 186 187 184 180 176 167 160 170 175 177 168 168
214 215 218 231 238 235 217 221 241 241 249 244 241 233 232 232 232 235 234 233 232 224 222 221 219 218 210 209 205 207 204 203 201 203 200 197 193 192 189 186 182 182 174 168 176 179 189 184 174
222 216 227 236 239 211 207 237 243 241 244 241 236 231 230 237 243 243 238 240 235 229 224 224 224 225 217 215 208 210 211 209 209 204 205 204 200 196 194 189 185 184 179 177 181 186 190 189 188
222 225 234 236 233 229 239 226 233 246 245 228 236 238 236 244 247 247 247 245 239 229 227 224 224 223 223 220 215 212 213 214 213 212 211 210 209 203 199 193 190 187 185 185 191 192 194 192 189
217 224 235 234 242 241 244 247 236 244 239 222 228 237 248 251 252 247 245 237 240 239 230 226 225 224 226 225 223 218 216 217 216 215 214 216 215 214 209 204 196 190 187 187 193 198 201 198 191
222 228 235 237 222 243 237 238 242 243 239 236 227 237 238 244 250 247 235 232 237 241 244 230 228 227 227 227 225 223 220 219 221 224 223 220 215 215 213 212 211 203 193 188 192 196 200 200 193
233 236 235 211 227 243 251 242 248 246 238 234 236 242 245 244 246 249 242 236 240 240 240 236 232 229 228 227 229 227 227 223 222 224 225 224 222 219 216 213 212 211 208 201 198 194 196 198 198
238 243 241 231 233 237 236 248 244 251 250 232 230 233 237 246 242 242 249 244 235 242 239 237 235 230 231 229 228 228 228 228 227 226 228 226 225 224 223 219 214 207 205 204 209 207 196 200 196
245 248 249 245 227 242 244 243 248 249 245 236 234 237 237 238 242 240 241 240 237 234 243 239 234 230 233 229 230 232 230 227 231 230 229 229 228 227 225 222 219 214 213 210 206 208 212 209 196
238 244 260 254 236 237 248 250 247 248 251 246 240 240 239 244 243 236 237 242 247 237 237 238 232 220 226 227 233 236 233 230 231 231 234 233 228 229 228 224 224 222 219 214 210 209 212 216 207
235 238 232 238 244 243 250 256 253 258 258 253 249 243 239 236 240 240 236 239 241 246 234 236 229 223 226 227 224 219 226 242 234 235 234 233 235 228 232 230 232 230 227 222 216 212 214 218 212
239 242 244 245 250 260 254 258 258 260 250 247 244 241 238 235 234 236 238 236 237 242 243 238 234 230 227 229 215 236 241 241 238 237 236 232 234 233 228 230 231 233 232 232 226 220 218 222 217
232 240 241 255 254 246 235 257 263 245 243 247 241 242 239 236 239 238 239 238 235 240 238 239 237 236 236 233 234 239 237 240 235 235 238 234 233 234 231 225 230 232 231 231 233 228 226 224 223
229 234 248 249 249 256 250 253 252 254 254 230 234 235 239 243 242 240 235 237 239 238 239 232 234 233 231 230 233 234 227 230 241 243 238 237 235 235 233 229 228 232 233 233 234 232 233 229 225
236 249 249 257 235 267 257 252 263 253 237 228 229 235 238 238 238 245 245 241 239 241 246 247 240 238 232 226 227 231 238 242 240 241 234 242 238 232 234 232 228 228 230 232 233 232 234 233 232
243 245 246 245 219 257 268 247 250 258 257 239 251 253 247 240 239 239 247 248 246 246 245 247 242 239 239 234 232 231 237 239 239 235 235 231 234 241 236 233 233 229 228 228 232 235 236 234 230
240 239 244 248 241 248 266 265 252 251 261 267 257 252 246 243 240 233 232 239 244 246 252 245 245 246 239 233 229 229 231 237 237 227 235 240 243 238 236 237 232 231 230 228 230 232 235 235 236
237 240 243 249 249 253 256 279 258 258 248 234 236 221 231 236 234 228 222 228 230 235 245 253 250 250 234 228 226 231 241 242 232 237 235 237 239 236 238 239 239 233 232 230 229 228 231 230 233
241 235 231 238 243 254 251 265 275 255 248 247 230 215 220 227 229 228 223 224 234 239 243 248 250 242 234 225 222 224 231 235 232 238 245 241 238 239 237 240 243 241 235 233 231 230 232 229 231
243 234 236 238 239 244 243 225 239 219 229 225 226 222 224 230 234 234 235 234 234 240 241 241 241 235 233 226 225 227 230 234 237 241 247 249 242 238 236 234 237 243 240 235 233 232 231 231 233
228 211 191 198 193 231 231 210 226 221 226 233 228 221 224 228 229 229 233 234 228 227 227 230 225 233 233 230 230 228 233 239 238 241 247 249 258 251 238 234 235 237 243 236 233 232 231 229 231
210 211 206 193 191 216 180 211 170 213 218 211 209 213 217 223 229 235 244 237 230 225 224 221 231 228 220 224 230 239 241 237 245 250 248 253 248 254 249 235 233 234 240 240 234 232 234 233 232
230 213 226 225 187 159 171 125 156 203 201 204 209 213 218 225 231 238 241 232 224 220 220 221 226 225 214 217 223 236 238 247 258 252 250 256 251 253 239 232 233 234 232 233 234 232 234 236 235
224 228 224 223 174 201 165 161 125 202 219 214 215 218 223 232 234 238 232 227 214 205 213 215 230 216 205 207 224 241 235 240 247 247 252 240 253 255 239 232 228 216 220 226 228 229 231 233 234
314 275 277 238 220 189 180 95 52 118 191 223 218 221 228 232 224 221 220 214 210 212 215 208 208 200 205 223 222 241 251 255 259 242 239 242 254 254 242 230 226 224 224 221 224 226 230 233 234
31 14 13 331 190 215 181 97 133 159 158 190 227 227 222 224 212 205 205 201 197 201 201 201 195 210 210 214 220 224 239 262 243 249 237 231 243 247 250 239 225 237 215 219 222 224 227 232 235
Height
3131 3133 3134 3136 3142 3137 3135 3135 3138 3140 3141 3142 3142 3144 3145 3147 3149 3153 3148 3151 3154 3155 3157 3158 3159 3160 3161 3162 3163 3164 3165 3166 3166 3166 3168 3170 3171 3172 3174 3176 3177 3178 3178 3179 3180 3180 3180 3180 3180
3128 3128 3131 3130 3133 3131 3131 3134 3134 3136 3139 3139 3142 3142 3143 3145 3146 3147 3148 3149 3153 3154 3155 3156 3158 3159 3160 3161 3163 3164 3164 3165 3167 3167 3168 3169 3171 3172 3173 3175 3177 3178 3179 3179 3179 3180 3180 3180 3179
3123 3124 3127 3127 3126 3124 3127 3131 3130 3132 3134 3136 3139 3140 3141 3139 3144 3146 3148 3148 3152 3153 3154 3156 3157 3158 3159 3160 3162 3163 3164 3165 3166 3167 3169 3169 3171 3172 3174 3175 3176 3178 3179 3180 3180 3180 3180 3180 3179
3119 3122 3124 3120 3118 3122 3124 3129 3129 3130 3131 3133 3135 3138 3138 3137 3140 3144 3146 3146 3151 3152 3153 3154 3155 3157 3158 3159 3161 3162 3163 3165 3165 3166 3168 3169 3170 3172 3173 3175 3176 3177 3178 3180 3180 3181 3180 3180 3179
3115 3117 3118 3115 3115 3118 3121 3122 3126 3128 3129 3131 3132 3132 3134 3134 3136 3141 3143 3143 3148 3150 3151 3152 3154 3155 3156 3158 3159 3161 3162 3163 3165 3166 3167 3168 3170 3171 3173 3174 3176 3177 3178 3179 3180 3181 3181 3180 3180
3112 3113 3112 3111 3112 3116 3119 3121 3122 3125 3125 3127 3128 3129 3130 3128 3132 3136 3139 3141 3142 3147 3148 3150 3152 3153 3155 3156 3157 3159 3161 3162 3163 3165 3166 3167 3169 3170 3171 3173 3174 3176 3177 3178 3179 3180 3181 3182 3181
3108 3107 3106 3109 3111 3112 3114 3117 3118 3121 3123 3123 3124 3126 3125 3123 3128 3131 3134 3135 3137 3141 3145 3147 3149 3151 3152 3154 3155 3157 3159 3160 3161 3163 3164 3166 3167 3168 3170 3172 3173 3175 3176 3177 3179 3180 3181 3182 3183
3105 3104 3103 3105 3107 3110 3111 3112 3114 3117 3120 3120 3119 3119 3119 3121 3123 3127 3129 3129 3131 3135 3139 3142 3145 3147 3149 3151 3153 3154 3156 3158 3160 3161 3163 3165 3166 3167 3169 3170 3172 3174 3176 3178 3179 3180 3181 3182 3183
3099 3099 3098 3100 3105 3105 3107 3109 3112 3113 3114 3114 3114 3115 3118 3118 3118 3123 3124 3126 3125 3129 3133 3137 3140 3143 3146 3148 3150 3152 3154 3157 3158 3160 3161 3163 3165 3167 3168 3170 3171 3172 3174 3176 3178 3180 3182 3183 3183
3093 3092 3093 3099 3101 3101 3102 3104 3106 3109 3110 3110 3111 3111 3113 3114 3116 3120 3122 3122 3122 3124 3126 3132 3134 3138 3141 3143 3146 3148 3151 3154 3156 3158 3160 3161 3163 3165 3167 3169 3171 3171 3172 3173 3175 3178 3180 3182 3183
3087 3085 3092 3094 3095 3096 3097 3099 3100 3103 3104 3106 3108 3109 3109 3111 3114 3115 3118 3119 3120 3120 3122 3126 3128 3132 3135 3139 3142 3145 3147 3151 3153 3155 3157 3159 3161 3163 3164 3165 3168 3171 3173 3175 3175 3175 3177 3180 3182
3080 3082 3085 3089 3090 3090 3091 3092 3095 3095 3102 3103 3104 3105 3106 3106 3109 3112 3113 3115 3117 3116 3119 3121 3123 3126 3129 3133 3137 3140 3144 3148 3149 3152 3154 3156 3159 3161 3163 3164 3166 3168 3170 3172 3175 3175 3174 3176 3179
3073 3077 3080 3082 3084 3083 3084 3085 3088 3089 3094 3098 3099 3100 3101 3103 3105 3108 3109 3110 3111 3114 3114 3117 3119 3121 3124 3127 3131 3135 3140 3144 3145 3148 3149 3153 3157 3159 3160 3163 3165 3167 3168 3170 3172 3173 3176 3174 3177
3071 3071 3072 3074 3077 3077 3076 3079 3080 3081 3088 3090 3092 3094 3097 3098 3100 3103 3105 3106 3107 3110 3110 3113 3115 3117 3120 3124 3127 3130 3134 3138 3141 3144 3146 3150 3154 3156 3158 3160 3162 3165 3166 3168 3170 3172 3172 3173 3176
3064 3064 3065 3066 3068 3070 3074 3068 3066 3079 3080 3081 3084 3087 3090 3093 3094 3097 3100 3101 3103 3104 3106 3107 3110 3112 3115 3119 3122 3125 3130 3132 3136 3139 3142 3146 3149 3153 3155 3158 3160 3163 3164 3166 3168 3169 3170 3171 3175
3058 3058 3056 3058 3064 3066 3069 3055 3064 3071 3069 3072 3075 3078 3082 3085 3088 3091 3094 3096 3098 3099 3101 3103 3105 3107 3110 3113 3118 3121 3124 3127 3131 3134 3137 3142 3144 3147 3151 3154 3156 3160 3163 3165 3167 3168 3168 3170 3173
3051 3047 3049 3054 3057 3059 3057 3052 3061 3063 3062 3066 3069 3070 3074 3078 3081 3084 3087 3090 3093 3095 3096 3098 3100 3103 3105 3108 3111 3115 3120 3122 3126 3129 3133 3137 3140 3142 3146 3150 3152 3155 3159 3162 3164 3167 3167 3167 3170
3039 3042 3043 3045 3051 3052 3049 3048 3055 3057 3057 3059 3062 3065 3068 3070 3074 3077 3081 3083 3086 3088 3091 3093 3095 3097 3099 3102 3105 3108 3112 3114 3120 3123 3128 3132 3135 3138 3142 3145 3148 3151 3155 3157 3160 3163 3164 3166 3167
3039 3039 3038 3040 3045 3046 3044 3044 3047 3052 3052 3054 3056 3059 3063 3065 3068 3069 3072 3076 3079 3081 3083 3087 3089 3091 3093 3096 3099 3102 3104 3108 3112 3117 3123 3127 3131 3134 3137 3141 3143 3146 3149 3153 3156 3159 3160 3164 3166
3031 3032 3029 3036 3039 3039 3038 3037 3041 3043 3044 3049 3052 3054 3057 3060 3062 3064 3065 3066 3070 3074 3077 3080 3083 3086 3088 3090 3094 3098 3101 3104 3107 3112 3116 3119 3125 3129 3132 3136 3139 3141 3144 3147 3151 3154 3157 3161 3163
3020 3020 3026 3030 3034 3032 3032 3029 3031 3035 3038 3042 3043 3047 3049 3050 3053 3056 3057 3058 3063 3066 3069 3074 3077 3080 3082 3085 3087 3091 3095 3097 3099 3102 3107 3112 3117 3122 3126 3130 3133 3136 3139 3142 3145 3149 3153 3157 3159
3012 3017 3022 3026 3030 3026 3028 3020 3023 3028 3031 3031 3031 3033 3035 3038 3041 3046 3050 3051 3053 3057 3062 3065 3070 3072 3075 3079 3081 3084 3088 3090 3094 3099 3103 3109 3112 3116 3120 3124 3128 3131 3134 3137 3140 3144 3147 3151 3154
3006 3015 3018 3021 3022 3023 3021 3025 3014 3021 3025 3021 3022 3022 3024 3028 3033 3038 3042 3044 3046 3051 3055 3058 3063 3066 3069 3072 3076 3079 3082 3087 3090 3092 3096 3101 3105 3109 3113 3117 3121 3126 3128 3132 3135 3138 3142 3145 3148
3007 3010 3013 3015 3017 3016 3005 3017 3011 3014 3014 3013 3015 3017 3020 3023 3026 3030 3034 3038 3040 3043 3048 3052 3055 3059 3061 3065 3070 3073 3077 3080 3083 3086 3088 3093 3097 3101 3104 3108 3113 3118 3122 3126 3130 3133 3136 3139 3142
2998 3001 3004 3009 3007 2998 2999 3010 3005 3008 3007 3008 3009 3011 3014 3017 3019 3023 3027 3029 3031 3034 3040 3044 3047 3050 3053 3057 3062 3067 3071 3073 3076 3080 3082 3084 3087 3090 3093 3099 3104 3110 3116 3119 3123 3127 3129 3133 3136
2987 2990 2989 2991 2993 2992 2997 2999 2998 3001 3002 3002 3003 3005 3008 3011 3014 3017 3021 3023 3025 3028 3031 3037 3040 3044 3047 3052 3055 3059 3062 3065 3067 3071 3075 3077 3077 3082 3086 3090 3097 3103 3107 3111 3115 3120 3124 3127 3129
2979 2978 2982 2983 2985 2988 2991 2997 2997 2994 2995 2997 2999 3000 3003 3005 3008 3011 3014 3017 3019 3022 3025 3029 3033 3038 3042 3046 3049 3053 3055 3057 3058 3061 3064 3067 3069 3072 3077 3081 3085 3092 3099 3103 3108 3112 3117 3121 3124
2969 2978 2979 2974 2980 2982 2982 2988 2992 2993 2992 2993 2994 2995 2997 2999 3003 3005 3007 3010 3014 3017 3021 3024 3028 3032 3037 3041 3043 3047 3048 3050 3050 3052 3054 3058 3060 3064 3067 3072 3077 3081 3087 3094 3099 3104 3109 3113 3117
2965 2969 2968 2968 2969 2972 2978 2989 2990 2988 2987 2987 2989 2990 2991 2994 2998 3000 3002 3005 3008 3012 3016 3020 3024 3029 3033 3035 3040 3041 3042 3042 3043 3045 3046 3048 3053 3056 3059 3063 3067 3074 3080 3085 3090 3095 3100 3104 3109
2973 2974 2972 2968 2963 2965 2966 2987 2986 2984 2982 2982 2984 2986 2987 2989 2992 2995 2998 3002 3005 3009 3013 3017 3020 3024 3028 3031 3033 3033 3036 3036 3036 3039 3041 3043 3046 3049 3050 3055 3058 3063 3069 3076 3081 3087 3092 3097 3101